Wind_Speed
27 28 17 11 14 13 18 13 17 19 22 25 26 31 33 32 30 30 34 35 34 41 47 54 57 62 63 60 57 63 68 73 78 79 78 73 71 68 63 59 53 52 55 58
29 25 18 17 8 13 13 15 17 16 21 23 28 32 32 34 35 33 32 33 37 43 50 54 59 62 61 56 62 67 73 77 78 78 72 67 64 62 56 54 50 47 50 56
20 25 22 15 7 12 18 15 18 18 19 21 29 29 32 35 36 34 33 38 42 46 51 55 60 62 56 58 63 70 75 78 76 72 69 64 61 56 53 49 49 45 46 52
25 27 24 28 24 14 19 18 21 19 20 24 25 27 34 35 34 36 37 41 44 48 52 58 63 59 54 60 66 72 76 77 77 71 65 61 57 55 53 48 43 45 50 52
30 27 27 28 26 24 20 19 22 19 21 24 23 27 32 34 36 39 39 40 42 49 55 60 64 55 56 62 67 73 77 79 76 70 63 60 56 54 51 50 51 51 46 42
29 29 28 24 23 19 20 16 21 18 21 22 23 24 30 34 37 39 37 38 45 49 58 62 62 53 56 63 68 73 78 78 75 67 64 58 54 51 57 56 49 44 44 43
33 31 26 21 22 23 21 18 17 15 19 20 22 26 30 32 36 41 39 43 46 53 61 63 61 53 57 63 67 73 78 78 73 66 62 56 52 56 53 48 47 46 47 43
36 32 30 29 26 25 23 20 16 12 18 21 24 25 27 30 39 44 44 44 48 54 61 63 62 53 57 61 65 72 78 76 71 67 62 55 53 56 50 46 47 46 46 45
40 33 31 28 32 30 21 20 17 14 16 21 21 25 29 34 42 43 45 50 50 53 60 62 63 52 55 59 64 71 76 75 73 68 64 57 53 57 54 48 46 45 47 48
42 36 37 35 31 33 28 21 18 14 15 20 21 27 30 36 45 43 48 52 50 53 59 62 63 52 53 58 64 70 73 73 72 72 65 60 54 57 58 48 44 46 48 48
36 38 37 36 37 34 26 23 20 17 15 19 22 27 28 38 44 45 51 52 51 54 59 61 62 53 52 56 62 68 72 70 71 72 69 62 61 57 58 54 45 45 46 47
37 40 39 39 40 33 28 25 23 19 17 20 22 26 32 39 42 46 50 55 52 53 59 59 61 54 52 55 60 65 69 69 69 71 72 69 63 61 56 58 56 47 44 44
40 42 39 39 37 31 26 27 24 21 18 22 22 26 30 38 42 45 48 53 55 56 57 58 60 56 52 54 58 63 66 67 67 69 71 74 71 63 63 57 56 58 52 43
43 46 42 40 36 30 28 26 23 22 21 24 24 26 29 35 40 42 47 51 56 55 56 57 60 57 52 52 56 60 64 65 66 67 70 72 73 73 67 65 58 55 59 52
47 43 45 42 35 31 31 26 23 21 24 25 25 27 29 36 37 41 46 49 54 55 57 59 59 58 53 52 54 57 61 64 65 68 68 69 72 74 72 68 64 59 55 58
45 47 43 43 30 30 29 27 24 22 24 22 25 28 31 34 35 39 44 49 52 55 57 58 58 58 54 51 52 54 58 61 64 65 68 70 71 72 74 73 70 63 60 56
51 47 42 43 38 32 32 28 26 26 23 24 25 28 33 33 33 39 42 47 51 55 58 56 59 58 55 51 50 51 53 57 61 64 67 69 71 71 73 73 72 72 65 62
52 46 39 35 33 34 34 30 24 23 23 26 27 28 31 28 31 36 42 45 50 55 55 56 58 57 55 52 50 49 50 54 57 61 65 67 69 72 72 73 73 71 72 66
52 46 44 42 32 31 30 25 22 22 26 27 27 30 30 33 32 37 42 44 51 54 53 55 57 58 55 53 51 48 46 51 54 58 61 64 67 69 72 72 72 74 73 71
54 50 43 39 38 34 25 22 22 25 26 26 26 30 33 35 31 35 45 43 50 51 52 53 56 57 55 53 51 49 46 47 51 54 57 61 63 66 70 71 72 73 74 72
52 49 47 45 40 33 21 23 27 29 25 24 26 30 35 34 30 35 39 46 47 50 54 54 57 58 56 53 51 50 47 46 49 52 54 58 61 63 65 68 70 70 72 71
53 50 49 43 41 32 24 28 27 29 27 25 28 28 30 37 31 34 38 44 46 50 52 55 58 58 56 53 51 51 50 47 47 49 51 55 57 60 63 65 67 69 71 70
52 48 48 43 40 31 31 31 29 31 29 26 29 29 37 41 30 33 40 40 47 51 54 56 58 61 56 53 52 51 51 49 48 48 50 52 54 57 60 62 64 68 68 70
49 45 41 39 35 32 30 27 27 30 30 30 32 34 37 37 32 36 41 40 48 51 55 56 58 62 58 53 52 52 52 52 50 50 49 50 52 55 56 59 61 63 66 69
52 47 40 35 36 34 35 32 32 31 32 30 32 35 33 37 32 37 43 43 48 51 54 54 57 62 58 56 52 50 52 53 52 51 51 50 50 52 55 56 58 60 62 66
46 41 38 36 34 38 35 34 33 32 35 32 35 33 33 32 33 36 44 45 49 51 51 51 54 57 59 56 54 52 52 53 54 53 52 52 50 50 51 54 56 57 61 63
Wind_Direction
239 223 204 212 242 284 306 311 319 323 321 329 334 334 347 350 347 348 344 333 333 337 334 334 336 334 331 330 332 332 331 329 330 330 326 323 321 318 313 308 301 294 287 280
235 229 208 207 248 265 286 298 318 319 319 328 331 338 352 355 351 348 337 329 333 332 331 337 337 334 333 336 338 336 334 333 333 329 326 321 318 314 311 308 305 297 287 281
239 230 219 209 218 253 289 300 324 311 317 325 329 343 353 352 346 340 330 333 335 333 336 340 339 338 339 340 339 337 338 336 331 330 326 323 319 316 315 314 309 304 297 290
242 227 220 235 233 243 276 292 313 310 317 322 333 346 350 352 344 337 332 333 332 336 342 342 341 340 342 342 341 340 339 336 335 332 328 326 326 325 324 321 318 312 306 304
239 227 224 241 244 248 267 282 307 300 317 320 332 343 353 350 345 347 342 340 340 344 344 344 345 342 343 344 343 343 340 338 336 333 333 333 332 331 330 328 324 321 320 318
231 227 234 246 241 238 256 287 294 306 309 313 328 343 348 353 348 349 345 345 346 346 345 346 346 344 345 346 345 344 341 341 338 339 340 339 337 338 337 336 334 332 333 331
221 228 235 224 220 235 252 276 293 296 306 306 323 337 353 352 354 354 351 349 347 344 345 348 347 345 347 347 347 345 345 345 345 345 346 344 345 345 344 347 347 345 340 342
229 231 235 229 233 242 262 277 276 291 305 310 323 336 352 353 353 354 354 350 347 346 347 350 348 346 347 347 345 346 348 349 353 352 352 351 350 350 351 355 351 348 350 351
230 220 225 229 242 251 260 267 266 285 305 311 326 331 337 339 345 353 354 352 347 345 348 350 349 345 346 345 345 348 351 354 358 359 358 357 353 356 358 359 356 356 358 359
222 224 231 233 239 243 255 260 263 283 309 313 323 330 337 336 341 348 351 350 347 346 347 349 350 344 344 346 348 352 353 358 1 4 3 3 360 2 4 359 0 3 4 3
230 219 226 226 236 240 242 254 262 275 301 316 319 328 330 334 340 347 349 350 347 347 348 349 350 344 342 347 351 353 355 360 3 7 7 7 8 5 5 7 4 6 6 7
238 216 221 227 235 238 242 255 253 272 293 306 306 318 325 331 341 346 347 349 348 349 349 350 349 344 343 348 353 355 357 1 4 8 11 12 12 11 7 9 12 9 7 10
226 213 216 223 231 237 238 245 240 270 283 294 300 302 317 327 334 343 344 352 355 350 350 349 349 347 345 349 352 356 358 2 6 9 11 13 15 14 14 10 8 12 11 9
215 207 213 220 229 229 237 237 239 261 271 286 302 307 316 325 339 342 343 348 351 350 347 347 348 349 347 348 351 356 359 3 7 11 12 12 13 16 16 15 12 10 12 11
192 206 215 218 218 225 234 235 241 256 264 284 306 315 317 324 337 340 342 349 353 351 346 348 349 350 350 348 352 355 360 5 8 11 13 12 14 15 17 17 16 15 12 14
191 198 207 216 219 232 236 238 244 251 268 287 316 316 313 323 335 339 344 350 352 354 348 348 349 350 352 350 349 355 0 4 9 12 13 15 15 15 15 17 19 17 16 15
189 198 208 218 218 229 237 238 243 251 273 299 310 311 312 321 335 336 344 348 347 354 350 349 350 350 351 350 348 354 359 4 8 12 15 15 15 15 15 15 16 17 18 18
189 196 202 211 218 236 227 239 248 254 277 295 299 307 314 321 332 337 344 346 346 351 352 349 350 350 350 351 349 352 356 2 6 10 14 16 15 16 17 16 16 16 17 19
193 199 204 212 215 232 227 241 252 261 280 289 296 305 308 322 328 331 337 342 343 350 353 349 350 350 350 352 352 350 353 357 3 6 9 12 15 15 17 17 15 16 16 17
200 203 208 209 214 226 233 244 252 268 278 284 297 302 310 317 322 329 333 341 341 346 352 349 349 349 351 352 353 351 351 355 359 2 4 7 10 13 15 16 16 16 14 15
206 211 213 216 223 240 233 241 256 265 271 283 297 307 312 313 322 327 331 342 338 345 351 351 350 349 349 352 354 354 352 352 354 357 360 3 5 8 12 14 16 16 14 13
212 217 221 225 235 238 245 249 254 258 270 278 288 307 314 325 317 323 326 334 335 341 348 352 352 350 348 351 353 354 354 352 351 352 354 356 360 4 7 11 12 15 15 13
217 220 224 230 235 242 243 254 248 259 271 281 284 294 305 315 318 320 324 329 336 338 342 350 352 351 349 349 352 352 355 355 350 348 349 352 354 357 1 5 9 10 12 14
220 223 227 232 235 240 245 249 258 258 270 274 281 289 304 311 317 321 315 328 336 336 338 345 350 350 350 349 349 351 352 353 353 350 347 348 351 352 356 359 2 7 8 10
222 224 224 235 233 253 254 250 259 258 274 278 287 293 302 309 316 319 316 320 331 333 336 345 348 349 350 350 348 349 351 352 351 350 349 348 348 347 349 352 356 360 4 5
226 229 230 228 241 244 253 251 254 266 276 280 281 288 302 310 318 317 314 316 324 328 336 343 346 347 349 350 348 346 347 350 351 350 349 350 347 345 345 346 349 353 357 2
Height
10894 10900 10901 10902 10903 10903 10902 10902 10899 10896 10894 10891 10889 10886 10880 10875 10871 10867 10863 10856 10851 10844 10835 10826 10814 10802 10790 10777 10762 10749 10734 10719 10701 10683 10667 10651 10637 10625 10615 10606 10599 10589 10579 10570
10890 10895 10897 10900 10901 10901 10902 10902 10900 10896 10893 10889 10885 10880 10875 10870 10865 10862 10859 10853 10847 10840 10831 10820 10807 10795 10780 10764 10750 10736 10722 10704 10686 10672 10657 10644 10630 10616 10604 10592 10582 10573 10562 10553
10885 10890 10892 10894 10896 10898 10899 10898 10896 10895 10892 10889 10884 10879 10872 10866 10862 10860 10854 10849 10843 10835 10824 10812 10799 10784 10767 10755 10742 10728 10710 10695 10680 10664 10647 10631 10618 10604 10589 10577 10565 10554 10544 10533
10879 10883 10886 10890 10891 10894 10895 10895 10893 10892 10889 10885 10882 10875 10870 10864 10860 10856 10850 10843 10836 10827 10816 10804 10789 10773 10760 10748 10735 10720 10704 10688 10671 10653 10636 10621 10603 10588 10576 10565 10553 10541 10529 10517
10873 10877 10880 10885 10888 10889 10891 10890 10890 10888 10884 10882 10879 10873 10868 10863 10858 10852 10844 10837 10829 10819 10808 10796 10781 10767 10756 10742 10728 10713 10697 10679 10662 10644 10625 10607 10592 10577 10564 10552 10539 10527 10515 10502
10867 10870 10875 10881 10883 10885 10885 10886 10885 10883 10880 10878 10875 10871 10867 10862 10855 10848 10840 10833 10824 10815 10804 10790 10776 10763 10751 10736 10722 10707 10691 10673 10653 10633 10615 10599 10585 10570 10553 10536 10524 10514 10502 10491
10861 10864 10871 10875 10879 10880 10881 10882 10881 10879 10877 10875 10871 10868 10865 10859 10853 10846 10838 10829 10819 10810 10798 10785 10771 10758 10745 10732 10718 10705 10688 10666 10644 10625 10609 10592 10577 10562 10547 10532 10517 10504 10493 10481
10854 10859 10865 10868 10872 10874 10876 10876 10876 10875 10874 10870 10867 10864 10861 10854 10847 10838 10831 10823 10815 10805 10792 10779 10767 10754 10742 10730 10719 10702 10682 10662 10640 10620 10602 10586 10572 10558 10542 10528 10514 10501 10489 10475
10848 10855 10859 10863 10865 10868 10870 10871 10871 10871 10869 10866 10863 10860 10856 10850 10843 10836 10828 10819 10809 10799 10789 10776 10763 10752 10741 10731 10717 10700 10679 10659 10637 10618 10599 10583 10570 10554 10537 10524 10513 10500 10486 10473
10844 10849 10854 10857 10860 10862 10865 10866 10866 10866 10864 10861 10858 10854 10851 10845 10840 10832 10825 10816 10806 10796 10786 10774 10762 10751 10740 10728 10714 10696 10677 10657 10638 10618 10600 10584 10569 10553 10537 10523 10512 10499 10485 10473
10836 10842 10847 10852 10854 10856 10859 10861 10862 10862 10860 10857 10854 10850 10847 10842 10836 10829 10821 10813 10803 10793 10783 10771 10761 10750 10738 10725 10710 10695 10676 10657 10641 10621 10603 10585 10568 10552 10539 10526 10512 10499 10487 10475
10830 10836 10841 10847 10849 10851 10853 10857 10858 10858 10856 10855 10852 10847 10843 10838 10833 10825 10818 10810 10800 10790 10780 10769 10759 10747 10735 10721 10708 10694 10676 10659 10641 10622 10604 10585 10569 10555 10541 10527 10513 10500 10488 10477
10823 10830 10835 10841 10844 10846 10849 10852 10853 10855 10853 10852 10849 10846 10841 10836 10831 10823 10816 10807 10797 10787 10778 10768 10758 10745 10731 10718 10707 10693 10677 10660 10642 10624 10606 10589 10573 10557 10542 10528 10515 10502 10489 10478
10813 10822 10828 10834 10838 10841 10845 10848 10849 10851 10850 10849 10845 10842 10838 10833 10827 10821 10813 10804 10794 10784 10775 10766 10754 10740 10727 10717 10705 10692 10678 10661 10644 10625 10608 10592 10576 10560 10544 10530 10518 10505 10491 10478
10805 10815 10822 10828 10831 10836 10841 10843 10845 10846 10845 10845 10842 10838 10834 10830 10824 10818 10810 10801 10791 10782 10773 10762 10749 10737 10725 10713 10703 10691 10677 10661 10645 10628 10611 10596 10580 10564 10550 10536 10522 10509 10497 10484
10798 10808 10815 10820 10827 10832 10836 10839 10841 10841 10841 10840 10838 10835 10830 10826 10821 10814 10807 10797 10789 10780 10770 10759 10747 10734 10721 10710 10701 10690 10675 10662 10647 10631 10614 10599 10584 10569 10555 10540 10526 10513 10501 10488
10790 10800 10808 10814 10820 10825 10830 10834 10836 10836 10837 10835 10834 10831 10826 10822 10816 10810 10803 10794 10786 10776 10767 10756 10744 10731 10720 10709 10699 10687 10675 10662 10648 10634 10618 10603 10589 10575 10560 10544 10530 10518 10504 10492
10785 10795 10803 10809 10813 10817 10825 10829 10830 10832 10832 10830 10828 10825 10822 10817 10812 10806 10799 10792 10783 10774 10763 10752 10741 10730 10718 10707 10696 10684 10674 10662 10649 10635 10622 10608 10594 10580 10565 10550 10536 10523 10510 10497
10780 10789 10797 10803 10809 10811 10819 10822 10824 10826 10826 10824 10822 10820 10816 10812 10808 10802 10795 10788 10779 10770 10760 10750 10739 10729 10717 10704 10693 10682 10672 10661 10649 10637 10624 10612 10599 10585 10570 10556 10542 10529 10516 10503
10775 10782 10792 10797 10800 10805 10814 10817 10819 10820 10820 10819 10818 10815 10812 10807 10803 10798 10792 10785 10776 10767 10758 10748 10738 10726 10714 10702 10691 10680 10669 10659 10648 10637 10626 10614 10602 10589 10575 10562 10548 10534 10521 10508
10774 10780 10785 10790 10797 10805 10811 10812 10814 10814 10816 10814 10813 10810 10807 10803 10799 10794 10788 10781 10773 10765 10756 10746 10734 10723 10712 10699 10688 10678 10667 10657 10647 10637 10627 10616 10604 10592 10580 10568 10555 10542 10529 10517
10770 10776 10782 10788 10793 10800 10805 10807 10808 10808 10809 10809 10808 10805 10803 10799 10794 10789 10784 10778 10771 10763 10753 10743 10733 10721 10709 10698 10687 10676 10666 10656 10646 10636 10626 10616 10605 10594 10583 10571 10559 10547 10535 10523
10766 10772 10779 10785 10790 10795 10798 10800 10801 10802 10803 10803 10801 10799 10796 10793 10788 10783 10778 10773 10767 10759 10750 10741 10731 10720 10708 10697 10686 10675 10665 10655 10645 10635 10626 10616 10605 10595 10584 10572 10561 10550 10538 10528
10760 10767 10774 10780 10785 10789 10793 10795 10796 10796 10796 10796 10794 10792 10789 10786 10782 10778 10772 10767 10761 10754 10746 10737 10727 10718 10706 10695 10684 10674 10664 10653 10643 10634 10624 10615 10605 10595 10584 10574 10563 10552 10541 10530
10755 10763 10769 10774 10779 10783 10786 10788 10788 10789 10789 10789 10787 10785 10782 10779 10775 10771 10767 10761 10755 10749 10741 10733 10724 10715 10704 10692 10682 10672 10662 10651 10641 10632 10622 10613 10603 10593 10583 10573 10564 10554 10544 10533
10749 10758 10762 10768 10773 10776 10778 10780 10781 10782 10782 10780 10779 10778 10776 10773 10769 10765 10760 10754 10749 10743 10736 10728 10720 10710 10700 10690 10679 10669 10660 10650 10640 10630 10620 10610 10600 10591 10581 10571 10562 10553 10544 10534